Location: Newark
(35.2672°N, 80.7344°W)
Time: 11:33:50
(UTC+00:00)

Transit 4A - All Passes

Search period start: 25 January 2020 00:00
Search period end: 04 February 2020 00:00
Orbit: 871 x 973 km, 66.8° (Epoch: 24 January)

Date Brightness Start Highest point End Pass type
(mag) Time Alt. Az. Time Alt. Az. Time Alt. Az.
25 Jan - 11:12:05 10° SSW 11:18:05 64° ESE 11:23:58 10° NNE visible
25 Jan - 13:00:36 10° W 13:04:52 20° NW 13:09:06 10° N daylight
25 Jan - 20:18:17 10° N 20:23:41 38° ENE 20:29:06 10° SE daylight
25 Jan - 22:04:55 10° NW 22:09:48 28° WSW 22:14:44 10° SSW daylight
26 Jan - 09:39:47 10° ESE 09:41:49 12° ESE 09:43:50 10° E visible
26 Jan - 11:21:17 10° SSW 11:27:23 84° WNW 11:33:21 10° NNE visible
26 Jan - 13:11:43 10° WNW 13:14:33 13° NW 13:17:22 10° NNW daylight
26 Jan - 20:27:22 10° NNW 20:33:06 58° ENE 20:38:54 10° SE daylight
26 Jan - 22:15:09 10° WNW 22:18:54 18° WSW 22:22:42 10° SW daylight
27 Jan - 09:46:40 10° SSE 09:50:52 20° ESE 09:55:01 10° ENE visible
27 Jan - 11:30:49 10° SW 11:36:45 55° WNW 11:42:34 10° NNE visible
27 Jan - 18:52:27 10° NNE 18:55:19 14° NE 18:58:11 10° ENE daylight
27 Jan - 20:36:36 10° NNW 20:42:27 88° ENE 20:48:22 10° SSE daylight
27 Jan - 22:27:08 10° W 22:27:56 10° WSW 22:28:45 10° WSW daylight
28 Jan - 09:54:46 10° SSE 10:00:00 31° ESE 10:05:08 10° NE visible
28 Jan - 11:40:39 10° WSW 11:46:11 37° WNW 11:51:37 10° N visible
28 Jan - 19:00:47 10° N 19:05:01 20° NE 19:09:14 10° E daylight
28 Jan - 20:46:00 10° NW 20:51:43 60° WSW 20:57:31 10° S daylight
29 Jan - 10:03:23 10° S 10:09:10 48° ESE 10:14:51 10° NE visible
29 Jan - 11:50:51 10° WSW 11:55:43 25° NW 12:00:31 10° N visible
29 Jan - 19:09:32 10° N 19:14:35 29° NE 19:19:39 10° ESE daylight
29 Jan - 20:55:36 10° NW 21:00:56 38° WSW 21:06:19 10° S daylight
30 Jan - 10:12:22 10° SSW 10:18:25 75° ESE 10:24:21 10° NNE visible
30 Jan - 12:01:31 10° W 12:05:20 17° NW 12:09:07 10° N daylight
30 Jan - 19:18:31 10° NNW 19:24:04 44° ENE 19:29:40 10° SE daylight
30 Jan - 21:05:30 10° NW 21:10:04 24° WSW 21:14:41 10° SSW daylight
31 Jan - 08:39:01 10° SE 08:42:04 14° ESE 08:45:05 10° ENE visible
31 Jan - 10:21:42 10° SSW 10:27:45 72° WNW 10:33:39 10° NNE visible
31 Jan - 12:13:07 10° WNW 12:15:04 12° NW 12:17:01 10° NNW daylight
31 Jan - 17:44:56 10° NNE 17:46:03 10° NE 17:47:11 10° NE daylight
31 Jan - 19:27:39 10° NNW 19:33:28 68° ENE 19:39:20 10° SE daylight
31 Jan - 21:16:01 10° WNW 21:19:09 15° WSW 21:22:18 10° SW daylight
01 Feb - 08:46:32 10° SSE 08:51:09 23° ESE 08:55:42 10° NE visible
01 Feb - 10:31:19 10° SW 10:37:07 47° WNW 10:42:50 10° NNE visible
01 Feb - 17:52:21 10° N 17:55:48 16° NE 17:59:16 10° E daylight
01 Feb - 19:36:57 10° NNW 19:42:47 80° WSW 19:48:41 10° SSE daylight
02 Feb - 08:54:49 10° S 09:00:17 36° ESE 09:05:39 10° NE visible
02 Feb - 10:41:17 10° WSW 10:46:36 32° NW 10:51:50 10° N visible
02 Feb - 18:00:53 10° N 18:05:28 23° NE 18:10:03 10° ESE daylight
02 Feb - 19:46:25 10° NW 19:52:02 51° WSW 19:57:44 10° S daylight
03 Feb - 09:03:35 10° S 09:09:29 57° ESE 09:15:17 10° NE visible
03 Feb - 10:51:39 10° W 10:56:09 22° NW 11:00:38 10° N visible
03 Feb - 18:09:44 10° N 18:14:59 34° NE 18:20:18 10° ESE daylight
03 Feb - 19:56:07 10° NW 20:01:13 32° WSW 20:06:23 10° S daylight
